Logan Peak - 24 Hour Table
Date & TimeSolar
Radiation
(W/m²)
Wind
Speed
(mph)
Wind
Direction
(degrees)
Air
Temperature
(°F)
Relative
Humidity
(%)
Barometeric
Pressure
(inHg)
2018/10/15 22:00 0 3.2 284 31.6 39 30.02
2018/10/15 21:00 0 5.4 62 30.9 50 30.00
2018/10/15 20:00 0 10.6 47 29.8 54 30.00
2018/10/15 19:00 0 14.2 36 30.5 63 30.00
2018/10/15 18:00 29 13.4 47 30.2 64 30.00
2018/10/15 17:00 190 10.7 63 31.0 64 29.98
2018/10/15 16:00 361 10.7 59 30.8 60 29.98
2018/10/15 15:00 507 12.9 52 29.3 58 29.99
2018/10/15 14:00 608 13.2 38 27.9 58 29.98
2018/10/15 13:00 655 10.6 29 27.3 52 29.99
2018/10/15 12:00 646 12.3 359 24.0 49 30.00
2018/10/15 11:00 581 16.6 318 22.1 46 30.00
2018/10/15 10:00 468 22.3 328 21.6 45 29.98
2018/10/15 09:00 312 21.9 330 20.6 45 29.98
2018/10/15 08:00 134 21.3 328 19.9 44 29.97
2018/10/15 07:00 7 21.6 332 18.1 38 29.96
2018/10/15 06:00 0 19.1 333 16.9 47 29.95
2018/10/15 05:00 0 17.0 324 13.0 67 29.94
2018/10/15 04:00 0 17.0 320 12.9 66 29.94
2018/10/15 03:00 0 13.7 311 14.4 65 29.94
2018/10/15 02:00 0 11.3 342 16.5 41 29.94
2018/10/15 01:00 0 14.8 339 15.8 46 29.93
2018/10/15 00:00 0 17.5 334 15.9 45 29.93
2018/10/14 23:00 0 17.9 334 15.2 37 29.93